User: anonymous   Login
Location: Unspecified
(0.0000°N, 0.0000°E)
Time: 17:31:02
(UTC+00:00)
Language:

NANOSAT C BR1 - Orbit

View from above orbital plane
View from above orbital plane
View from above satellite
View from above satellite

Ground track
Ground track

The orbit data is extracted from the following two-line orbital elements,

1 40024U 14033Q   21336.79595152  .00001101  00000-0  11801-3 0  9996
2 40024  97.9659 273.2590 0011723 342.4384  17.6427 14.90717785404674
Epoch (UTC): 02 December 2021 19:06:10
Eccentricity: 0.0011723
inclination: 97.9659°
perigee height: 587 km
apogee height: 604 km
right ascension of ascending node: 273.2590°
argument of perigee: 342.4384°
revolutions per day: 14.90717785
mean anomaly at epoch: 17.6427°
orbit number at epoch: 40467

The dashed part of the orbit path shows where the satellite is in the earth's shadow,  

DLR